Location: Casa Rossa
(45.2389°N, 12.2056°E)
Time: 03:25:49
(UTC+00:00)

Cosmos 1725 Rocket - Pass Details

Date: 14 July 2020
Orbit: 963 x 990 km, 82.9° (Epoch: 11 August)

Event Time Altitude Azimuth Distance (km) Brightness Sun altitude
Exits shadow 01:21:06 26° 194° (SSW) 1,798 4.8 -17.4°
Maximum altitude 01:24:47 79° 278° (W) 993 4.0 -17.1°
Drops below altitude 10° 01:31:04 10° 6° (N) 2,736 7.3 -16.5°
Sets 01:33:36 0° 8° (N) 3,692 8.2 -16.3°
